Westfield, MA

7:19 AM EDT on July 25, 2016 (GMT -0400)
Barnes Municipal

Weather History for KBAF - November, 2013

Change the Weather History Date:

Monday, November 4, 2013

  Actual Average Record
Temperature  
Mean Temperature 33 °F -  
Max Temperature 43 °F 51 °F 69 °F (2005)
Min Temperature 23 °F 32 °F 19 °F (1998)
Degree Days  
Heating Degree Days 32    
Moisture  
Dew Point 16 °F    
Average Humidity 55    
Maximum Humidity 84    
Minimum Humidity 30    
Precipitation  
Precipitation 0.00 in - - ()
Sea Level Pressure  
Sea Level Pressure 30.64 in    
Wind  
Wind Speed 3 mph (NNE)    
Max Wind Speed 16 mph    
Max Gust Speed -    
Visibility 10 miles    
Events      
Averages and records for this station are not official NWS values.
T = Trace of Precipitation, MM = Missing Value Source: NWS Daily Summary

Daily Weather History Graph

Daily Weather History Graph

Search for Another Location

Airport or City:

Trip Planner

Search our weather history database for the weather conditions in past years. The results will help you decide how hot, cold, wet, or windy it might be!

Date:

Astronomy

Nov. 04, 2013 Rise Set
Actual Time 6:27 AM EST 4:40 PM EST
Civil Twilight 5:58 AM EST 5:09 PM EST
Nautical Twilight 5:25 AM EST 5:43 PM EST
Astronomical Twilight 4:52 AM EST 6:15 PM EST
Moon 7:36 AM EST (11/4) 5:41 PM EST (11/4)
Length of Visible Light 11h 11m
Length of Day
10h 12m
New Moon, 2% of the Moon is Illuminated
Nov 4
New Moon
Nov 10
First Quarter
Nov 17
Full
Nov 25
Last Quarter
Dec 2
New

Hourly Weather History & Observations

Time (EST) Temp. Windchill Dew Point Humidity Pressure Visibility Wind Dir Wind Speed Gust Speed Precip Events Conditions
12:53 AM 27.0 °F - 15.1 °F 61% 30.49 in 10.0 mi Calm Calm - N/A   Clear
1:53 AM 25.0 °F 20.7 °F 15.1 °F 66% 30.53 in 10.0 mi NE 3.5 mph - N/A   Clear
2:53 AM 26.1 °F 21.9 °F 15.1 °F 63% 30.53 in 10.0 mi NNE 3.5 mph - N/A   Clear
3:53 AM 27.0 °F 23.0 °F 14.0 °F 58% 30.55 in 10.0 mi North 3.5 mph - N/A   Clear
4:53 AM 25.0 °F 19.3 °F 15.1 °F 66% 30.58 in 10.0 mi North 4.6 mph - N/A   Clear
5:53 AM 23.0 °F 18.4 °F 17.1 °F 78% 30.60 in 10.0 mi NE 3.5 mph - N/A   Clear
6:53 AM 26.1 °F 21.9 °F 16.0 °F 66% 30.63 in 10.0 mi North 3.5 mph - N/A   Clear
7:53 AM 32.0 °F 28.7 °F 19.0 °F 59% 30.64 in 10.0 mi Variable 3.5 mph - N/A   Clear
8:53 AM 35.1 °F 27.4 °F 17.1 °F 48% 30.66 in 10.0 mi NNE 10.4 mph - N/A   Clear
9:53 AM 37.0 °F 27.7 °F 15.1 °F 41% 30.66 in 10.0 mi North 16.1 mph - N/A   Clear
10:53 AM 37.9 °F 32.1 °F 12.9 °F 36% 30.67 in 10.0 mi North 8.1 mph - N/A   Clear
11:53 AM 39.9 °F 37.8 °F 12.0 °F 32% 30.65 in 10.0 mi ENE 3.5 mph - N/A   Clear
12:53 PM 42.1 °F 38.4 °F 12.9 °F 31% 30.64 in 10.0 mi Variable 5.8 mph - N/A   Clear
1:53 PM 42.1 °F 40.2 °F 12.9 °F 31% 30.64 in 10.0 mi Variable 3.5 mph - N/A   Clear
2:53 PM 43.0 °F 40.3 °F 12.9 °F 30% 30.64 in 10.0 mi NNE 4.6 mph - N/A   Clear
3:53 PM 42.1 °F 40.2 °F 12.9 °F 31% 30.65 in 10.0 mi NNE 3.5 mph - N/A   Clear
4:53 PM 39.0 °F - 14.0 °F 36% 30.65 in 10.0 mi Calm Calm - N/A   Clear
5:53 PM 33.1 °F - 16.0 °F 50% 30.67 in 10.0 mi Calm Calm - N/A   Clear
6:53 PM 28.9 °F - 18.0 °F 64% 30.68 in 10.0 mi Calm Calm - N/A   Clear
7:53 PM 27.0 °F - 18.0 °F 69% 30.69 in 10.0 mi Calm Calm - N/A   Clear
8:53 PM 27.0 °F 23.0 °F 19.9 °F 75% 30.69 in 10.0 mi WNW 3.5 mph - N/A   Clear
9:53 PM 26.1 °F - 19.0 °F 75% 30.70 in 10.0 mi Calm Calm - N/A   Clear
10:53 PM 25.0 °F - 19.0 °F 78% 30.71 in 10.0 mi Calm Calm - N/A   Clear
11:53 PM 24.1 °F - 19.9 °F 84% 30.72 in 10.0 mi Calm Calm - N/A   Clear